Time,TemperatureF,DewpointF,PressureIn,WindDirection,WindDirectionDegrees,WindSpeedMPH,WindSpeedGustMPH,Humidity,HourlyPrecipIn,Conditions,Clouds,dailyrainin,SoftwareType,DateUTC
2013-01-25 00:03:00,55.9,36.5,30.03,WNW,293,0.0,0.0,48,0.00,,BKN039,0.00,VWS V14.01,2013-01-25 08:03:00,
2013-01-25 00:08:00,55.9,36.5,30.03,WNW,293,0.0,0.0,48,0.00,,BKN039,0.00,VWS V14.01,2013-01-25 08:08:00,
2013-01-25 00:13:00,55.9,36.5,30.03,WNW,293,0.0,0.0,48,0.00,,BKN039,0.00,VWS V14.01,2013-01-25 08:13:00,
2013-01-25 00:18:00,55.9,36.5,30.03,WNW,294,0.0,0.0,48,0.00,,BKN039,0.00,VWS V14.01,2013-01-25 08:18:00,
2013-01-25 00:23:00,55.9,36.5,30.03,WNW,293,0.0,0.0,48,0.00,,BKN039,0.00,VWS V14.01,2013-01-25 08:23:00,
2013-01-25 00:28:00,55.4,36.1,30.03,WNW,293,0.0,0.0,48,0.00,,BKN039,0.00,VWS V14.01,2013-01-25 08:28:00,
2013-01-25 00:33:00,55.2,35.9,30.03,WNW,293,0.0,0.0,48,0.00,,BKN039,0.00,VWS V14.01,2013-01-25 08:33:00,
2013-01-25 00:38:00,55.0,35.7,30.03,WNW,293,0.0,0.0,48,0.00,,BKN039,0.00,VWS V14.01,2013-01-25 08:38:00,
2013-01-25 00:43:00,55.0,35.7,30.03,WNW,293,0.0,0.0,48,0.00,,BKN039,0.00,VWS V14.01,2013-01-25 08:43:00,
2013-01-25 00:48:00,55.0,35.7,30.03,WNW,293,0.0,0.0,48,0.00,,BKN039,0.00,VWS V14.01,2013-01-25 08:48:00,
2013-01-25 00:53:00,54.5,35.2,30.03,NNE,21,0.0,0.0,48,0.00,,BKN039,0.00,VWS V14.01,2013-01-25 08:53:00,
2013-01-25 00:58:00,54.5,35.2,30.03,WNW,288,0.0,0.0,48,0.00,,BKN039,0.00,VWS V14.01,2013-01-25 08:58:00,
2013-01-25 01:03:00,54.7,35.9,30.03,WNW,291,0.0,0.0,49,0.00,,BKN047,0.00,VWS V14.01,2013-01-25 09:03:00,
2013-01-25 01:08:00,54.7,35.9,30.03,NNW,343,0.0,0.0,49,0.00,,BKN047,0.00,VWS V14.01,2013-01-25 09:08:00,
2013-01-25 01:13:00,54.7,35.9,30.03,North,357,0.0,0.0,49,0.00,,BKN047,0.00,VWS V14.01,2013-01-25 09:13:00,
2013-01-25 01:18:00,54.9,36.1,30.03,North,357,0.0,0.0,49,0.00,,BKN047,0.00,VWS V14.01,2013-01-25 09:18:00,
2013-01-25 01:23:00,54.9,36.1,30.03,North,357,0.0,0.0,49,0.00,,BKN047,0.00,VWS V14.01,2013-01-25 09:23:00,
2013-01-25 01:28:00,55.0,36.2,30.03,North,357,0.0,0.0,49,0.00,,BKN047,0.00,VWS V14.01,2013-01-25 09:28:00,
2013-01-25 01:33:00,55.2,36.4,30.03,North,357,0.0,0.0,49,0.00,,BKN047,0.00,VWS V14.01,2013-01-25 09:33:00,
2013-01-25 01:38:00,55.2,36.4,30.03,NNW,341,0.0,0.0,49,0.00,,BKN047,0.00,VWS V14.01,2013-01-25 09:38:00,
2013-01-25 01:43:00,55.2,36.4,30.03,NNW,342,0.0,0.0,49,0.00,,BKN047,0.00,VWS V14.01,2013-01-25 09:43:00,
2013-01-25 01:48:00,55.2,36.4,30.03,NNW,341,0.0,0.0,49,0.00,,BKN047,0.00,VWS V14.01,2013-01-25 09:48:00,
2013-01-25 01:53:00,55.2,36.9,30.03,NNW,342,0.0,0.0,50,0.00,,BKN047,0.00,VWS V14.01,2013-01-25 09:53:00,
2013-01-25 01:58:00,55.2,36.9,30.03,NNW,341,0.0,0.0,50,0.00,,BKN047,0.00,VWS V14.01,2013-01-25 09:58:00,
2013-01-25 02:03:00,55.2,36.9,30.03,NNW,341,0.0,0.0,50,0.00,,OVC060,0.00,VWS V14.01,2013-01-25 10:03:00,
2013-01-25 02:08:00,55.2,36.9,30.03,NNW,342,0.0,0.0,50,0.00,,OVC060,0.00,VWS V14.01,2013-01-25 10:08:00,
2013-01-25 02:13:00,55.2,36.9,30.03,NNW,341,0.0,0.0,50,0.00,,OVC060,0.00,VWS V14.01,2013-01-25 10:13:00,
2013-01-25 02:18:00,55.4,37.1,30.03,NNW,342,0.0,0.0,50,0.00,,OVC060,0.00,VWS V14.01,2013-01-25 10:18:00,
2013-01-25 02:23:00,55.4,37.1,30.03,NNW,342,0.0,0.0,50,0.00,,OVC060,0.00,VWS V14.01,2013-01-25 10:23:00,
2013-01-25 02:28:00,55.4,37.1,30.03,NNW,342,0.0,0.0,50,0.00,,OVC060,0.00,VWS V14.01,2013-01-25 10:28:00,
2013-01-25 02:33:00,55.4,37.1,30.03,NNW,342,0.0,0.0,50,0.00,,OVC060,0.00,VWS V14.01,2013-01-25 10:33:00,
2013-01-25 02:38:00,55.4,37.1,30.03,NNW,342,0.0,0.0,50,0.00,,OVC060,0.00,VWS V14.01,2013-01-25 10:38:00,
2013-01-25 02:43:00,55.4,37.1,30.03,NNW,341,0.0,0.0,50,0.00,,OVC060,0.00,VWS V14.01,2013-01-25 10:43:00,
2013-01-25 02:48:00,55.4,37.1,30.03,NNW,342,0.0,0.0,50,0.00,,OVC060,0.00,VWS V14.01,2013-01-25 10:48:00,
2013-01-25 02:53:00,55.4,37.6,30.03,NNW,342,0.0,0.0,51,0.00,,OVC060,0.00,VWS V14.01,2013-01-25 10:53:00,
2013-01-25 02:58:00,55.4,37.6,30.03,NNW,342,0.0,0.0,51,0.00,,OVC060,0.00,VWS V14.01,2013-01-25 10:58:00,
2013-01-25 03:03:00,55.4,37.6,30.03,NNW,342,0.0,0.0,51,0.00,,BKN030,0.00,VWS V14.01,2013-01-25 11:03:00,
2013-01-25 03:08:00,55.4,37.6,30.03,NNW,341,0.0,0.0,51,0.00,,BKN030,0.00,VWS V14.01,2013-01-25 11:08:00,
2013-01-25 03:13:00,55.4,37.6,30.03,NNW,342,0.0,0.0,51,0.00,,BKN030,0.00,VWS V14.01,2013-01-25 11:13:00,
2013-01-25 03:18:00,55.4,37.6,30.03,NNW,342,0.0,0.0,51,0.00,,BKN030,0.00,VWS V14.01,2013-01-25 11:18:00,
2013-01-25 03:23:00,55.4,37.6,30.03,NNW,342,0.0,0.0,51,0.00,,BKN030,0.00,VWS V14.01,2013-01-25 11:23:00,
2013-01-25 03:28:00,55.0,37.8,30.03,NNW,342,0.0,0.0,52,0.00,,BKN030,0.00,VWS V14.01,2013-01-25 11:28:00,
2013-01-25 03:33:00,55.0,37.8,30.00,NNW,341,0.0,0.0,52,0.00,,BKN030,0.00,VWS V14.01,2013-01-25 11:33:00,
2013-01-25 03:38:00,54.9,37.6,30.00,NNW,342,0.0,0.0,52,0.00,,BKN030,0.00,VWS V14.01,2013-01-25 11:38:00,
2013-01-25 03:43:00,54.9,37.6,30.00,NNW,341,0.0,0.0,52,0.00,,BKN030,0.00,VWS V14.01,2013-01-25 11:43:00,
2013-01-25 03:48:00,54.5,37.2,30.00,NNW,342,0.0,0.0,52,0.00,,BKN030,0.00,VWS V14.01,2013-01-25 11:48:00,
2013-01-25 03:53:00,54.5,37.2,30.00,NNW,342,0.0,0.0,52,0.00,,BKN030,0.00,VWS V14.01,2013-01-25 11:53:00,
2013-01-25 03:58:00,54.3,37.1,30.00,NNW,342,0.0,0.0,52,0.00,,BKN030,0.00,VWS V14.01,2013-01-25 11:58:00,
2013-01-25 04:03:00,54.1,37.4,30.00,NNW,342,0.0,0.0,53,0.00,,,0.00,VWS V14.01,2013-01-25 12:03:00,
2013-01-25 04:08:00,54.1,37.4,30.00,NNW,342,0.0,0.0,53,0.00,,,0.00,VWS V14.01,2013-01-25 12:08:00,
2013-01-25 04:12:00,54.1,37.4,30.00,NNW,342,0.0,0.0,53,0.00,,,0.00,VWS V14.01,2013-01-25 12:12:00,
2013-01-25 04:17:00,54.1,37.4,30.00,NNW,342,0.0,0.0,53,0.00,,,0.00,VWS V14.01,2013-01-25 12:17:00,
2013-01-25 04:22:00,54.1,37.4,30.00,NNW,341,0.0,0.0,53,0.00,,,0.00,VWS V14.01,2013-01-25 12:22:00,
2013-01-25 04:27:00,54.1,37.4,30.00,NNW,342,0.0,0.0,53,0.00,,,0.00,VWS V14.01,2013-01-25 12:27:00,
2013-01-25 04:32:00,54.3,38.0,30.00,NNW,342,0.0,0.0,54,0.00,,,0.00,VWS V14.01,2013-01-25 12:32:00,
2013-01-25 04:37:00,54.5,38.2,30.00,North,5,0.0,0.0,54,0.00,,,0.00,VWS V14.01,2013-01-25 12:37:00,
2013-01-25 04:42:00,54.5,38.2,30.00,North,5,0.0,0.0,54,0.00,,,0.00,VWS V14.01,2013-01-25 12:42:00,
2013-01-25 04:47:00,54.5,38.2,30.00,NNE,23,0.0,0.0,54,0.00,,,0.00,VWS V14.01,2013-01-25 12:47:00,
2013-01-25 04:52:00,54.7,38.4,30.00,ENE,74,0.0,0.0,54,0.00,,,0.00,VWS V14.01,2013-01-25 12:52:00,
2013-01-25 04:57:00,54.7,38.4,30.00,NW,322,0.0,0.0,54,0.00,,,0.00,VWS V14.01,2013-01-25 12:57:00,
2013-01-25 05:02:00,54.9,38.5,30.00,NW,322,0.0,0.0,54,0.00,,,0.00,VWS V14.01,2013-01-25 13:02:00,
2013-01-25 05:07:00,54.9,39.0,30.00,NW,322,0.0,0.0,55,0.00,,,0.00,VWS V14.01,2013-01-25 13:07:00,
2013-01-25 05:12:00,55.0,39.2,30.00,NW,322,0.0,0.0,55,0.00,,,0.00,VWS V14.01,2013-01-25 13:12:00,
2013-01-25 05:17:00,55.2,39.3,30.00,NW,318,0.0,0.0,55,0.00,,,0.00,VWS V14.01,2013-01-25 13:17:00,
2013-01-25 05:22:00,55.2,39.3,30.00,NW,318,0.0,0.0,55,0.00,,,0.00,VWS V14.01,2013-01-25 13:22:00,
2013-01-25 05:27:00,55.2,39.3,30.00,NW,322,0.0,0.0,55,0.00,,,0.00,VWS V14.01,2013-01-25 13:27:00,
2013-01-25 05:32:00,55.4,39.5,30.00,NW,323,0.0,0.0,55,0.00,,,0.00,VWS V14.01,2013-01-25 13:32:00,
2013-01-25 05:37:00,55.4,39.5,30.00,NW,323,0.0,0.0,55,0.00,,,0.00,VWS V14.01,2013-01-25 13:37:00,
2013-01-25 05:42:00,55.4,39.5,30.00,NW,323,0.0,0.0,55,0.00,,,0.00,VWS V14.01,2013-01-25 13:42:00,
2013-01-25 05:47:00,55.2,39.8,30.00,North,350,0.0,0.0,56,0.00,,,0.00,VWS V14.01,2013-01-25 13:47:00,
2013-01-25 05:52:00,55.0,39.7,30.00,North,353,0.0,0.0,56,0.00,,,0.00,VWS V14.01,2013-01-25 13:52:00,
2013-01-25 05:57:00,55.0,39.7,30.00,NNW,342,0.0,0.0,56,0.00,,,0.00,VWS V14.01,2013-01-25 13:57:00,
2013-01-25 06:02:00,55.0,39.7,30.00,NNW,343,0.0,0.0,56,0.00,,,0.00,VWS V14.01,2013-01-25 14:02:00,
2013-01-25 06:07:00,55.2,40.3,30.00,NNW,342,0.0,0.0,57,0.00,,,0.00,VWS V14.01,2013-01-25 14:07:00,
2013-01-25 06:12:00,55.2,40.3,30.00,NNW,343,0.0,0.0,57,0.00,,,0.00,VWS V14.01,2013-01-25 14:12:00,
2013-01-25 06:17:00,55.4,40.4,30.00,NNW,342,0.0,0.0,57,0.00,,,0.00,VWS V14.01,2013-01-25 14:17:00,
2013-01-25 06:22:00,55.4,40.4,30.00,NNW,343,0.0,0.0,57,0.00,,,0.00,VWS V14.01,2013-01-25 14:22:00,
2013-01-25 06:27:00,55.0,40.1,30.00,NW,315,0.0,0.0,57,0.00,,,0.00,VWS V14.01,2013-01-25 14:27:00,
2013-01-25 06:32:00,55.0,40.1,30.00,NW,315,0.0,0.0,57,0.00,,,0.00,VWS V14.01,2013-01-25 14:32:00,
2013-01-25 06:37:00,55.0,40.1,30.00,NW,320,0.0,0.0,57,0.00,,,0.00,VWS V14.01,2013-01-25 14:37:00,
2013-01-25 06:42:00,54.9,39.9,30.00,NW,320,0.0,0.0,57,0.00,,,0.00,VWS V14.01,2013-01-25 14:42:00,
2013-01-25 06:47:00,54.9,39.9,30.00,NW,320,0.0,0.0,57,0.00,,,0.00,VWS V14.01,2013-01-25 14:47:00,
2013-01-25 06:52:00,54.9,39.9,30.00,NW,320,0.0,0.0,57,0.00,,,0.00,VWS V14.01,2013-01-25 14:52:00,
2013-01-25 06:57:00,54.7,39.8,30.00,NW,320,0.0,0.0,57,0.00,,,0.00,VWS V14.01,2013-01-25 14:57:00,
2013-01-25 07:02:00,54.7,39.8,30.00,NW,319,0.0,0.0,57,0.00,,,0.00,VWS V14.01,2013-01-25 15:02:00,
2013-01-25 07:07:00,54.5,39.6,30.00,NW,320,0.0,0.0,57,0.00,,,0.00,VWS V14.01,2013-01-25 15:07:00,
2013-01-25 07:12:00,54.5,39.6,30.00,NW,320,0.0,0.0,57,0.00,,,0.00,VWS V14.01,2013-01-25 15:12:00,
2013-01-25 07:17:00,54.1,39.3,30.00,NW,320,0.0,0.0,57,0.00,,,0.00,VWS V14.01,2013-01-25 15:17:00,
2013-01-25 07:22:00,54.1,39.3,30.00,NW,320,0.0,0.0,57,0.00,,,0.00,VWS V14.01,2013-01-25 15:22:00,
2013-01-25 07:27:00,54.0,39.5,30.00,NW,320,0.0,0.0,58,0.00,,,0.00,VWS V14.01,2013-01-25 15:27:00,
2013-01-25 07:32:00,53.8,39.4,30.00,NW,320,0.0,0.0,58,0.00,,,0.00,VWS V14.01,2013-01-25 15:32:00,
2013-01-25 07:37:00,53.8,39.4,30.00,NW,320,0.0,0.0,58,0.00,,,0.00,VWS V14.01,2013-01-25 15:37:00,
2013-01-25 07:42:00,53.8,39.4,30.00,NW,320,0.0,0.0,58,0.00,,,0.00,VWS V14.01,2013-01-25 15:42:00,
2013-01-25 07:47:00,53.8,39.4,30.00,NW,320,0.0,0.0,58,0.00,,,0.00,VWS V14.01,2013-01-25 15:47:00,
2013-01-25 07:52:00,53.8,39.8,30.00,NW,320,0.0,0.0,59,0.00,,,0.00,VWS V14.01,2013-01-25 15:52:00,
2013-01-25 07:57:00,54.0,40.0,30.00,NW,320,0.0,0.0,59,0.00,,,0.00,VWS V14.01,2013-01-25 15:57:00,
2013-01-25 08:02:00,54.1,40.1,30.00,NW,319,0.0,0.0,59,0.00,,,0.00,VWS V14.01,2013-01-25 16:02:00,
2013-01-25 08:07:00,54.3,40.3,30.00,NW,320,0.0,0.0,59,0.00,,,0.00,VWS V14.01,2013-01-25 16:07:00,
2013-01-25 08:12:00,54.3,40.3,30.00,NW,319,0.0,0.0,59,0.00,,,0.00,VWS V14.01,2013-01-25 16:12:00,
2013-01-25 08:17:00,54.3,40.3,30.00,NW,320,0.0,0.0,59,0.00,,,0.00,VWS V14.01,2013-01-25 16:17:00,
2013-01-25 08:22:00,54.5,40.9,30.00,NW,319,0.0,0.0,60,0.00,,,0.00,VWS V14.01,2013-01-25 16:22:00,
2013-01-25 08:27:00,54.7,41.1,30.00,NW,319,0.0,0.0,60,0.00,,,0.00,VWS V14.01,2013-01-25 16:27:00,
2013-01-25 08:32:00,54.7,41.1,30.00,NW,319,0.0,0.0,60,0.00,,,0.00,VWS V14.01,2013-01-25 16:32:00,
2013-01-25 08:37:00,55.0,41.4,30.00,WNW,303,0.0,0.0,60,0.00,,,0.00,VWS V14.01,2013-01-25 16:37:00,
2013-01-25 08:42:00,55.4,41.8,30.00,WNW,303,0.0,0.0,60,0.00,,,0.00,VWS V14.01,2013-01-25 16:42:00,
2013-01-25 08:47:00,55.4,41.8,30.00,WNW,303,0.0,0.0,60,0.00,,,0.00,VWS V14.01,2013-01-25 16:47:00,
2013-01-25 08:52:00,56.3,43.0,30.00,WNW,303,0.0,0.0,61,0.00,,,0.00,VWS V14.01,2013-01-25 16:52:00,
2013-01-25 08:57:00,56.3,43.0,30.00,WNW,302,0.0,0.0,61,0.00,,,0.00,VWS V14.01,2013-01-25 16:57:00,
2013-01-25 09:02:00,56.5,43.2,30.00,WNW,302,0.0,0.0,61,0.00,,,0.00,VWS V14.01,2013-01-25 17:02:00,
2013-01-25 09:07:00,56.5,43.2,30.00,WNW,302,0.0,0.0,61,0.00,,,0.00,VWS V14.01,2013-01-25 17:07:00,
2013-01-25 09:12:00,56.5,43.2,30.00,WNW,303,0.0,0.0,61,0.00,,,0.00,VWS V14.01,2013-01-25 17:12:00,
2013-01-25 09:17:00,56.3,42.6,30.00,WNW,302,0.0,0.0,60,0.00,,,0.00,VWS V14.01,2013-01-25 17:17:00,
2013-01-25 09:22:00,56.3,42.6,30.00,NW,307,0.0,0.0,60,0.00,,,0.00,VWS V14.01,2013-01-25 17:22:00,
2013-01-25 09:27:00,57.0,44.1,30.00,NW,305,0.0,0.0,62,0.00,,,0.00,VWS V14.01,2013-01-25 17:27:00,
2013-01-25 09:32:00,57.2,44.3,30.00,NW,323,0.0,0.0,62,0.00,,,0.00,VWS V14.01,2013-01-25 17:32:00,
2013-01-25 09:37:00,58.3,45.3,30.00,NW,322,0.0,0.0,62,0.00,,,0.00,VWS V14.01,2013-01-25 17:37:00,
2013-01-25 09:42:00,58.5,45.5,30.00,West,281,0.0,0.0,62,0.00,,,0.00,VWS V14.01,2013-01-25 17:42:00,
2013-01-25 09:47:00,59.5,46.5,30.00,West,281,0.0,0.0,62,0.00,,,0.00,VWS V14.01,2013-01-25 17:47:00,
2013-01-25 09:52:00,60.1,46.6,30.00,North,350,0.0,0.0,61,0.00,,,0.00,VWS V14.01,2013-01-25 17:52:00,
2013-01-25 09:57:00,60.1,46.6,30.00,North,350,0.0,0.0,61,0.00,,,0.00,VWS V14.01,2013-01-25 17:57:00,
2013-01-25 10:02:00,60.3,46.3,30.00,NW,326,0.0,0.0,60,0.00,,,0.00,VWS V14.01,2013-01-25 18:02:00,
2013-01-25 10:07:00,60.4,46.1,30.00,South,183,0.0,0.0,59,0.00,,,0.00,VWS V14.01,2013-01-25 18:07:00,
2013-01-25 10:12:00,60.8,46.0,30.00,SW,219,0.0,0.0,58,0.00,,,0.00,VWS V14.01,2013-01-25 18:12:00,
2013-01-25 10:17:00,61.2,44.9,30.00,WNW,284,0.0,0.0,55,0.00,,,0.00,VWS V14.01,2013-01-25 18:17:00,
2013-01-25 10:22:00,61.3,44.1,30.00,WSW,243,0.0,0.0,53,0.00,,,0.00,VWS V14.01,2013-01-25 18:22:00,
2013-01-25 10:27:00,61.7,44.9,30.00,South,173,0.0,0.0,54,0.00,,,0.00,VWS V14.01,2013-01-25 18:27:00,
2013-01-25 10:32:00,63.1,43.2,30.00,SSW,200,0.0,0.0,48,0.00,,,0.00,VWS V14.01,2013-01-25 18:32:00,
2013-01-25 10:37:00,63.1,43.2,30.00,NW,315,0.0,0.0,48,0.00,,,0.00,VWS V14.01,2013-01-25 18:37:00,
2013-01-25 10:42:00,64.6,42.8,30.00,NW,323,0.0,0.0,45,0.00,,,0.00,VWS V14.01,2013-01-25 18:42:00,
2013-01-25 10:47:00,64.9,41.9,30.00,NW,326,0.0,0.0,43,0.00,,,0.00,VWS V14.01,2013-01-25 18:47:00,
2013-01-25 10:52:00,64.9,41.9,30.00,NW,326,0.0,0.0,43,0.00,,,0.00,VWS V14.01,2013-01-25 18:52:00,
2013-01-25 10:57:00,65.8,39.5,30.00,NW,306,0.0,0.0,38,0.00,,,0.00,VWS V14.01,2013-01-25 18:57:00,
2013-01-25 11:02:00,65.8,39.5,30.00,NW,317,0.0,0.0,38,0.00,,,0.00,VWS V14.01,2013-01-25 19:02:00,
2013-01-25 11:07:00,65.8,39.5,30.00,NW,316,0.0,0.0,38,0.00,,,0.00,VWS V14.01,2013-01-25 19:07:00,
2013-01-25 11:12:00,66.0,38.3,30.00,NW,314,0.0,0.0,36,0.00,,,0.00,VWS V14.01,2013-01-25 19:12:00,
2013-01-25 11:17:00,66.0,38.3,30.00,NW,309,0.0,0.0,36,0.00,,,0.00,VWS V14.01,2013-01-25 19:17:00,
2013-01-25 11:22:00,66.6,36.6,30.00,NW,309,0.0,0.0,33,0.00,,,0.00,VWS V14.01,2013-01-25 19:22:00,
2013-01-25 11:27:00,66.4,36.4,30.00,NNW,331,0.0,0.0,33,0.00,,,0.00,VWS V14.01,2013-01-25 19:27:00,
2013-01-25 11:32:00,66.6,36.6,30.00,NW,320,0.0,0.0,33,0.00,,,0.00,VWS V14.01,2013-01-25 19:32:00,
2013-01-25 11:37:00,66.7,36.8,30.00,NNW,331,0.0,0.0,33,0.00,,,0.00,VWS V14.01,2013-01-25 19:37:00,
2013-01-25 11:42:00,66.7,36.8,30.00,NNW,331,0.0,0.0,33,0.00,,,0.00,VWS V14.01,2013-01-25 19:42:00,
2013-01-25 11:47:00,66.9,35.3,29.97,NW,313,0.0,0.0,31,0.00,,,0.00,VWS V14.01,2013-01-25 19:47:00,
2013-01-25 11:52:00,66.9,35.3,29.97,NW,307,0.0,0.0,31,0.00,,,0.00,VWS V14.01,2013-01-25 19:52:00,
2013-01-25 11:57:00,67.1,33.8,29.97,NE,51,0.0,0.0,29,0.00,,,0.00,VWS V14.01,2013-01-25 19:57:00,
2013-01-25 12:02:00,66.9,33.7,29.97,WSW,248,0.0,0.0,29,0.00,,FEW025,0.00,VWS V14.01,2013-01-25 20:02:00,
2013-01-25 12:07:00,67.1,33.8,29.97,NNW,343,0.0,0.0,29,0.00,,FEW025,0.00,VWS V14.01,2013-01-25 20:07:00,
2013-01-25 12:12:00,67.5,34.1,29.97,South,180,0.0,0.0,29,0.00,,FEW025,0.00,VWS V14.01,2013-01-25 20:12:00,
2013-01-25 12:17:00,67.6,33.4,29.97,South,180,0.0,0.0,28,0.00,,FEW025,0.00,VWS V14.01,2013-01-25 20:17:00,
2013-01-25 12:22:00,67.6,33.4,29.97,South,175,0.0,0.0,28,0.00,,FEW025,0.00,VWS V14.01,2013-01-25 20:22:00,
2013-01-25 12:27:00,67.5,32.3,29.97,West,273,0.0,0.0,27,0.00,,FEW025,0.00,VWS V14.01,2013-01-25 20:27:00,
2013-01-25 12:32:00,67.5,32.3,29.94,West,280,0.0,0.0,27,0.00,,FEW025,0.00,VWS V14.01,2013-01-25 20:32:00,
2013-01-25 12:37:00,68.4,33.1,29.94,NE,47,0.0,0.0,27,0.00,,FEW025,0.00,VWS V14.01,2013-01-25 20:37:00,
2013-01-25 12:42:00,68.5,32.3,29.94,NE,56,0.0,0.0,26,0.00,,FEW025,0.00,VWS V14.01,2013-01-25 20:42:00,
2013-01-25 12:47:00,68.5,33.3,29.94,NE,56,0.0,0.0,27,0.00,,FEW025,0.00,VWS V14.01,2013-01-25 20:47:00,
2013-01-25 12:52:00,68.7,32.5,29.94,NNW,337,0.0,0.0,26,0.00,,FEW025,0.00,VWS V14.01,2013-01-25 20:52:00,
2013-01-25 12:57:00,68.9,32.6,29.94,NNW,338,0.0,0.0,26,0.00,,FEW025,0.00,VWS V14.01,2013-01-25 20:57:00,
2013-01-25 13:02:00,68.7,32.5,29.94,NW,320,0.0,0.0,26,0.00,,SCT050,0.00,VWS V14.01,2013-01-25 21:02:00,
2013-01-25 13:07:00,68.5,32.3,29.94,NNE,17,0.0,0.0,26,0.00,,SCT050,0.00,VWS V14.01,2013-01-25 21:07:00,
2013-01-25 13:12:00,68.5,32.3,29.94,WNW,285,0.0,0.0,26,0.00,,SCT050,0.00,VWS V14.01,2013-01-25 21:12:00,
2013-01-25 13:17:00,68.9,32.6,29.94,NE,43,0.0,0.0,26,0.00,,SCT050,0.00,VWS V14.01,2013-01-25 21:17:00,
2013-01-25 13:22:00,69.1,32.8,29.94,NNW,333,0.0,0.0,26,0.00,,SCT050,0.00,VWS V14.01,2013-01-25 21:22:00,
2013-01-25 13:27:00,69.4,32.1,29.94,NNW,333,0.0,0.0,25,0.00,,SCT050,0.00,VWS V14.01,2013-01-25 21:27:00,
2013-01-25 13:32:00,69.6,32.3,29.94,WNW,294,0.0,0.0,25,0.00,,SCT050,0.00,VWS V14.01,2013-01-25 21:32:00,
2013-01-25 13:37:00,69.6,32.3,29.94,NW,322,0.0,0.0,25,0.00,,SCT050,0.00,VWS V14.01,2013-01-25 21:37:00,
2013-01-25 13:42:00,70.0,31.6,29.94,South,181,0.0,0.0,24,0.00,,SCT050,0.00,VWS V14.01,2013-01-25 21:42:00,
2013-01-25 13:47:00,70.2,31.7,29.91,NW,316,0.0,0.0,24,0.00,,SCT050,0.00,VWS V14.01,2013-01-25 21:47:00,
2013-01-25 13:52:00,70.2,31.7,29.91,NW,316,0.0,0.0,24,0.00,,SCT050,0.00,VWS V14.01,2013-01-25 21:52:00,
2013-01-25 13:57:00,70.2,31.7,29.91,NW,320,0.0,0.0,24,0.00,,SCT050,0.00,VWS V14.01,2013-01-25 21:57:00,
2013-01-25 14:02:00,70.3,31.9,29.91,NW,320,0.0,0.0,24,0.00,,BKN050,0.00,VWS V14.01,2013-01-25 22:02:00,
2013-01-25 14:07:00,70.5,32.0,29.91,North,4,0.0,0.0,24,0.00,,BKN050,0.00,VWS V14.01,2013-01-25 22:07:00,
2013-01-25 14:12:00,70.7,31.1,29.91,WNW,294,0.0,0.0,23,0.00,,BKN050,0.00,VWS V14.01,2013-01-25 22:12:00,
2013-01-25 14:17:00,70.5,32.0,29.91,WNW,294,0.0,0.0,24,0.00,,BKN050,0.00,VWS V14.01,2013-01-25 22:17:00,
2013-01-25 14:22:00,70.5,32.0,29.91,NNE,19,0.0,0.0,24,0.00,,BKN050,0.00,VWS V14.01,2013-01-25 22:22:00,
2013-01-25 14:27:00,70.5,32.0,29.91,WNW,286,0.0,0.0,24,0.00,,BKN050,0.00,VWS V14.01,2013-01-25 22:27:00,
2013-01-25 14:32:00,70.5,32.0,29.91,SSW,208,0.0,0.0,24,0.00,,BKN050,0.00,VWS V14.01,2013-01-25 22:32:00,
2013-01-25 14:37:00,70.2,30.7,29.91,SSE,163,0.0,0.0,23,0.00,,BKN050,0.00,VWS V14.01,2013-01-25 22:37:00,
2013-01-25 14:42:00,70.2,30.7,29.91,West,268,0.0,0.0,23,0.00,,BKN050,0.00,VWS V14.01,2013-01-25 22:42:00,
2013-01-25 14:47:00,69.1,30.8,29.91,West,268,0.0,0.0,24,0.00,,BKN050,0.00,VWS V14.01,2013-01-25 22:47:00,
2013-01-25 14:52:00,67.8,29.7,29.91,South,186,0.0,0.0,24,0.00,,BKN050,0.00,VWS V14.01,2013-01-25 22:52:00,
2013-01-25 14:57:00,67.8,29.7,29.91,SSE,167,0.0,0.0,24,0.00,,BKN050,0.00,VWS V14.01,2013-01-25 22:57:00,
2013-01-25 15:02:00,66.7,30.8,29.91,SW,220,0.0,0.0,26,0.00,,SCT080,0.00,VWS V14.01,2013-01-25 23:02:00,
2013-01-25 15:07:00,66.7,30.8,29.91,SSW,202,0.0,0.0,26,0.00,,SCT080,0.00,VWS V14.01,2013-01-25 23:07:00,
2013-01-25 15:12:00,67.6,31.6,29.91,SSW,211,0.0,0.0,26,0.00,,SCT080,0.00,VWS V14.01,2013-01-25 23:12:00,
2013-01-25 15:17:00,67.6,31.6,29.91,SW,229,0.0,0.0,26,0.00,,SCT080,0.00,VWS V14.01,2013-01-25 23:17:00,
2013-01-25 15:21:00,68.5,31.4,29.91,NNW,342,0.0,0.0,25,0.00,,SCT080,0.00,VWS V14.01,2013-01-25 23:21:00,
2013-01-25 15:26:00,68.7,31.5,29.91,NW,312,0.0,0.0,25,0.00,,SCT080,0.00,VWS V14.01,2013-01-25 23:26:00,
2013-01-25 15:31:00,68.7,31.5,29.88,West,265,0.0,0.0,25,0.00,,SCT080,0.00,VWS V14.01,2013-01-25 23:31:00,
2013-01-25 15:36:00,69.3,31.0,29.88,West,263,0.0,0.0,24,0.00,,SCT080,0.00,VWS V14.01,2013-01-25 23:36:00,
2013-01-25 15:41:00,69.3,31.0,29.88,SSE,164,0.0,0.0,24,0.00,,SCT080,0.00,VWS V14.01,2013-01-25 23:41:00,
2013-01-25 15:46:00,68.9,30.6,29.88,SE,125,0.0,0.0,24,0.00,,SCT080,0.00,VWS V14.01,2013-01-25 23:46:00,
2013-01-25 15:51:00,68.7,30.5,29.88,ENE,65,0.0,0.0,24,0.00,,SCT080,0.00,VWS V14.01,2013-01-25 23:51:00,
2013-01-25 15:56:00,68.5,30.4,29.88,SW,220,0.0,0.0,24,0.00,,SCT080,0.00,VWS V14.01,2013-01-25 23:56:00,
2013-01-25 16:01:00,68.4,30.2,29.88,East,85,0.0,0.0,24,0.00,,SCT180,0.00,VWS V14.01,2013-01-26 00:01:00,
2013-01-25 16:06:00,68.2,30.0,29.88,SSW,200,0.0,0.0,24,0.00,,SCT180,0.00,VWS V14.01,2013-01-26 00:06:00,
2013-01-25 16:11:00,68.2,31.0,29.88,SW,224,0.0,0.0,25,0.00,,SCT180,0.00,VWS V14.01,2013-01-26 00:11:00,
2013-01-25 16:16:00,68.2,31.0,29.88,West,265,0.0,0.0,25,0.00,,SCT180,0.00,VWS V14.01,2013-01-26 00:16:00,
2013-01-25 16:21:00,67.8,30.7,29.88,West,265,0.0,0.0,25,0.00,,SCT180,0.00,VWS V14.01,2013-01-26 00:21:00,
2013-01-25 16:26:00,67.1,30.1,29.88,ENE,76,0.0,0.0,25,0.00,,SCT180,0.00,VWS V14.01,2013-01-26 00:26:00,
2013-01-25 16:31:00,66.4,30.5,29.88,ENE,76,0.0,0.0,26,0.00,,SCT180,0.00,VWS V14.01,2013-01-26 00:31:00,
2013-01-25 16:36:00,66.0,31.1,29.88,North,4,0.0,0.0,27,0.00,,SCT180,0.00,VWS V14.01,2013-01-26 00:36:00,
2013-01-25 16:41:00,65.8,31.0,29.88,WSW,258,0.0,0.0,27,0.00,,SCT180,0.00,VWS V14.01,2013-01-26 00:41:00,
2013-01-25 16:46:00,65.5,30.6,29.88,WSW,258,0.0,0.0,27,0.00,,SCT180,0.00,VWS V14.01,2013-01-26 00:46:00,
2013-01-25 16:51:00,65.5,30.6,29.88,West,281,0.0,0.0,27,0.00,,SCT180,0.00,VWS V14.01,2013-01-26 00:51:00,
2013-01-25 16:56:00,64.4,30.6,29.88,NNW,333,0.0,0.0,28,0.00,,SCT180,0.00,VWS V14.01,2013-01-26 00:56:00,
2013-01-25 17:01:00,64.4,30.6,29.88,NNW,333,0.0,0.0,28,0.00,,SCT180,0.00,VWS V14.01,2013-01-26 01:01:00,
2013-01-25 17:06:00,63.3,30.5,29.88,NNW,333,0.0,0.0,29,0.00,,SCT180,0.00,VWS V14.01,2013-01-26 01:06:00,
2013-01-25 17:11:00,63.3,30.5,29.88,NNW,333,0.0,0.0,29,0.00,,SCT180,0.00,VWS V14.01,2013-01-26 01:11:00,
2013-01-25 17:16:00,62.6,30.8,29.88,NW,318,0.0,0.0,30,0.00,,SCT180,0.00,VWS V14.01,2013-01-26 01:16:00,
2013-01-25 17:21:00,62.1,30.3,29.88,NW,318,0.0,0.0,30,0.00,,SCT180,0.00,VWS V14.01,2013-01-26 01:21:00,
2013-01-25 17:26:00,62.1,30.3,29.88,NW,318,0.0,0.0,30,0.00,,SCT180,0.00,VWS V14.01,2013-01-26 01:26:00,
2013-01-25 17:31:00,61.2,30.3,29.88,NW,318,0.0,0.0,31,0.00,,SCT180,0.00,VWS V14.01,2013-01-26 01:31:00,
2013-01-25 17:36:00,61.2,30.3,29.88,NW,318,0.0,0.0,31,0.00,,SCT180,0.00,VWS V14.01,2013-01-26 01:36:00,
2013-01-25 17:41:00,61.0,30.9,29.88,NW,318,0.0,0.0,32,0.00,,SCT180,0.00,VWS V14.01,2013-01-26 01:41:00,
2013-01-25 17:46:00,60.6,32.1,29.88,NW,318,0.0,0.0,34,0.00,,SCT180,0.00,VWS V14.01,2013-01-26 01:46:00,
2013-01-25 17:51:00,60.4,32.0,29.88,NW,318,0.0,0.0,34,0.00,,SCT180,0.00,VWS V14.01,2013-01-26 01:51:00,
2013-01-25 17:56:00,60.3,31.8,29.88,NW,318,0.0,0.0,34,0.00,,SCT180,0.00,VWS V14.01,2013-01-26 01:56:00,
2013-01-25 18:01:00,60.3,31.8,29.88,NW,318,0.0,0.0,34,0.00,,SCT180,0.00,VWS V14.01,2013-01-26 02:01:00,
2013-01-25 18:06:00,60.1,31.6,29.88,NW,318,0.0,0.0,34,0.00,,SCT180,0.00,VWS V14.01,2013-01-26 02:06:00,
2013-01-25 18:11:00,60.1,32.4,29.88,NW,318,0.0,0.0,35,0.00,,SCT180,0.00,VWS V14.01,2013-01-26 02:11:00,
2013-01-25 18:16:00,60.1,32.4,29.88,NW,318,0.0,0.0,35,0.00,,SCT180,0.00,VWS V14.01,2013-01-26 02:16:00,
2013-01-25 18:21:00,60.1,32.4,29.88,NW,318,0.0,0.0,35,0.00,,SCT180,0.00,VWS V14.01,2013-01-26 02:21:00,
2013-01-25 18:26:00,59.9,32.2,29.88,NW,318,0.0,0.0,35,0.00,,SCT180,0.00,VWS V14.01,2013-01-26 02:26:00,
2013-01-25 18:31:00,59.7,32.0,29.88,NW,318,0.0,0.0,35,0.00,,SCT180,0.00,VWS V14.01,2013-01-26 02:31:00,
2013-01-25 18:36:00,59.5,31.9,29.88,NW,318,0.0,0.0,35,0.00,,SCT180,0.00,VWS V14.01,2013-01-26 02:36:00,
2013-01-25 18:41:00,59.5,31.9,29.88,NW,318,0.0,0.0,35,0.00,,SCT180,0.00,VWS V14.01,2013-01-26 02:41:00,
2013-01-25 18:46:00,59.5,31.9,29.88,NW,318,0.0,0.0,35,0.00,,SCT180,0.00,VWS V14.01,2013-01-26 02:46:00,
2013-01-25 18:51:00,59.7,32.0,29.88,NW,318,0.0,0.0,35,0.00,,SCT180,0.00,VWS V14.01,2013-01-26 02:51:00,
2013-01-25 18:56:00,59.7,32.0,29.88,NW,318,0.0,0.0,35,0.00,,SCT180,0.00,VWS V14.01,2013-01-26 02:56:00,
2013-01-25 19:01:00,59.4,31.7,29.88,NW,318,0.0,0.0,35,0.00,,BKN180,0.00,VWS V14.01,2013-01-26 03:01:00,
2013-01-25 19:06:00,59.4,31.7,29.88,NW,318,0.0,0.0,35,0.00,,BKN180,0.00,VWS V14.01,2013-01-26 03:06:00,
2013-01-25 19:11:00,59.4,31.7,29.88,NW,318,0.0,0.0,35,0.00,,BKN180,0.00,VWS V14.01,2013-01-26 03:11:00,
2013-01-25 19:16:00,59.4,31.7,29.88,NW,318,0.0,0.0,35,0.00,,BKN180,0.00,VWS V14.01,2013-01-26 03:16:00,
2013-01-25 19:21:00,59.2,31.6,29.88,NW,318,0.0,0.0,35,0.00,,BKN180,0.00,VWS V14.01,2013-01-26 03:21:00,
2013-01-25 19:26:00,58.6,31.8,29.88,NW,318,0.0,0.0,36,0.00,,BKN180,0.00,VWS V14.01,2013-01-26 03:26:00,
2013-01-25 19:31:00,58.6,31.8,29.88,NW,318,0.0,0.0,36,0.00,,BKN180,0.00,VWS V14.01,2013-01-26 03:31:00,
2013-01-25 19:36:00,58.6,31.8,29.88,NW,318,0.0,0.0,36,0.00,,BKN180,0.00,VWS V14.01,2013-01-26 03:36:00,
2013-01-25 19:41:00,58.1,32.0,29.88,NW,318,0.0,0.0,37,0.00,,BKN180,0.00,VWS V14.01,2013-01-26 03:41:00,
2013-01-25 19:46:00,58.1,32.0,29.88,NW,318,0.0,0.0,37,0.00,,BKN180,0.00,VWS V14.01,2013-01-26 03:46:00,
2013-01-25 19:51:00,57.9,31.8,29.88,NW,318,0.0,0.0,37,0.00,,BKN180,0.00,VWS V14.01,2013-01-26 03:51:00,
2013-01-25 19:56:00,57.9,31.8,29.88,NW,318,0.0,0.0,37,0.00,,BKN180,0.00,VWS V14.01,2013-01-26 03:56:00,
2013-01-25 20:01:00,57.7,31.7,29.88,NW,318,0.0,0.0,37,0.00,,SCT180,0.00,VWS V14.01,2013-01-26 04:01:00,
2013-01-25 20:06:00,57.9,32.5,29.88,NW,318,0.0,0.0,38,0.00,,SCT180,0.00,VWS V14.01,2013-01-26 04:06:00,
2013-01-25 20:11:00,57.9,32.5,29.88,NW,319,0.0,0.0,38,0.00,,SCT180,0.00,VWS V14.01,2013-01-26 04:11:00,
2013-01-25 20:16:00,57.7,32.3,29.88,NW,318,0.0,0.0,38,0.00,,SCT180,0.00,VWS V14.01,2013-01-26 04:16:00,
2013-01-25 20:21:00,57.7,32.3,29.88,NW,318,0.0,0.0,38,0.00,,SCT180,0.00,VWS V14.01,2013-01-26 04:21:00,
2013-01-25 20:26:00,57.6,32.2,29.88,NW,318,0.0,0.0,38,0.00,,SCT180,0.00,VWS V14.01,2013-01-26 04:26:00,
2013-01-25 20:31:00,57.7,33.0,29.88,NW,318,0.0,0.0,39,0.00,,SCT180,0.00,VWS V14.01,2013-01-26 04:31:00,
2013-01-25 20:36:00,57.7,33.0,29.88,NW,318,0.0,0.0,39,0.00,,SCT180,0.00,VWS V14.01,2013-01-26 04:36:00,
2013-01-25 20:41:00,57.7,33.0,29.88,NW,319,0.0,0.0,39,0.00,,SCT180,0.00,VWS V14.01,2013-01-26 04:41:00,
2013-01-25 20:46:00,57.6,32.8,29.88,NW,319,0.0,0.0,39,0.00,,SCT180,0.00,VWS V14.01,2013-01-26 04:46:00,
2013-01-25 20:51:00,57.2,32.5,29.88,NW,319,0.0,0.0,39,0.00,,SCT180,0.00,VWS V14.01,2013-01-26 04:51:00,
2013-01-25 20:56:00,57.2,32.5,29.88,NW,318,0.0,0.0,39,0.00,,SCT180,0.00,VWS V14.01,2013-01-26 04:56:00,
2013-01-25 21:00:00,57.2,32.5,29.88,NW,318,0.0,0.0,39,0.00,,SCT180,0.00,VWS V14.01,2013-01-26 05:00:00,
2013-01-25 21:05:00,56.5,32.5,29.88,NW,316,0.0,0.0,40,0.00,,BKN180,0.00,VWS V14.01,2013-01-26 05:05:00,
2013-01-25 21:10:00,56.5,32.5,29.88,NW,316,0.0,0.0,40,0.00,,BKN180,0.00,VWS V14.01,2013-01-26 05:10:00,
2013-01-25 21:15:00,56.3,32.9,29.88,NW,316,0.0,0.0,41,0.00,,BKN180,0.00,VWS V14.01,2013-01-26 05:15:00,
2013-01-25 21:20:00,56.3,32.9,29.88,NW,316,0.0,0.0,41,0.00,,BKN180,0.00,VWS V14.01,2013-01-26 05:20:00,
2013-01-25 21:25:00,56.3,32.9,29.88,NW,317,0.0,0.0,41,0.00,,BKN180,0.00,VWS V14.01,2013-01-26 05:25:00,
2013-01-25 21:30:00,56.3,32.9,29.88,NW,316,0.0,0.0,41,0.00,,BKN180,0.00,VWS V14.01,2013-01-26 05:30:00,
2013-01-25 21:35:00,55.9,33.2,29.88,NW,316,0.0,0.0,42,0.00,,BKN180,0.00,VWS V14.01,2013-01-26 05:35:00,
2013-01-25 21:40:00,55.8,33.0,29.88,NW,316,0.0,0.0,42,0.00,,BKN180,0.00,VWS V14.01,2013-01-26 05:40:00,
2013-01-25 21:45:00,55.4,33.3,29.88,NNW,345,0.0,0.0,43,0.00,,BKN180,0.00,VWS V14.01,2013-01-26 05:45:00,
2013-01-25 21:50:00,55.4,33.3,29.91,NNW,345,0.0,0.0,43,0.00,,BKN180,0.00,VWS V14.01,2013-01-26 05:50:00,
2013-01-25 21:55:00,55.2,34.3,29.91,North,1,0.0,0.0,45,0.00,,BKN180,0.00,VWS V14.01,2013-01-26 05:55:00,
2013-01-25 22:00:00,55.2,34.3,29.91,North,0,0.0,0.0,45,0.00,,BKN180,0.00,VWS V14.01,2013-01-26 06:00:00,
2013-01-25 22:05:00,55.0,34.1,29.91,NE,48,0.0,0.0,45,0.00,,BKN180,0.00,VWS V14.01,2013-01-26 06:05:00,
2013-01-25 22:10:00,55.0,34.7,29.91,East,92,0.0,0.0,46,0.00,,BKN180,0.00,VWS V14.01,2013-01-26 06:10:00,
2013-01-25 22:15:00,55.0,34.7,29.91,ENE,70,0.0,0.0,46,0.00,,BKN180,0.00,VWS V14.01,2013-01-26 06:15:00,
2013-01-25 22:20:00,54.7,34.3,29.91,NE,51,0.0,0.0,46,0.00,,BKN180,0.00,VWS V14.01,2013-01-26 06:20:00,
2013-01-25 22:25:00,54.7,34.3,29.91,NE,51,0.0,0.0,46,0.00,,BKN180,0.00,VWS V14.01,2013-01-26 06:25:00,
2013-01-25 22:30:00,54.7,34.3,29.91,NE,51,0.0,0.0,46,0.00,,BKN180,0.00,VWS V14.01,2013-01-26 06:30:00,
2013-01-25 22:35:00,54.5,34.7,29.91,ESE,102,0.0,0.0,47,0.00,,BKN180,0.00,VWS V14.01,2013-01-26 06:35:00,
2013-01-25 22:40:00,54.3,34.5,29.91,ESE,102,0.0,0.0,47,0.00,,BKN180,0.00,VWS V14.01,2013-01-26 06:40:00,
2013-01-25 22:45:00,54.1,34.4,29.91,ESE,122,0.0,0.0,47,0.00,,BKN180,0.00,VWS V14.01,2013-01-26 06:45:00,
2013-01-25 22:50:00,54.3,34.5,29.91,ESE,123,0.0,0.0,47,0.00,,BKN180,0.00,VWS V14.01,2013-01-26 06:50:00,
2013-01-25 22:55:00,54.5,35.2,29.91,ESE,123,0.0,0.0,48,0.00,,BKN180,0.00,VWS V14.01,2013-01-26 06:55:00,
2013-01-25 23:00:00,54.5,35.2,29.91,ESE,122,0.0,0.0,48,0.00,,BKN100,0.00,VWS V14.01,2013-01-26 07:00:00,
2013-01-25 23:05:00,54.5,35.2,29.91,ESE,123,0.0,0.0,48,0.00,,BKN100,0.00,VWS V14.01,2013-01-26 07:05:00,
2013-01-25 23:10:00,54.5,35.2,29.91,ESE,122,0.0,0.0,48,0.00,,BKN100,0.00,VWS V14.01,2013-01-26 07:10:00,
2013-01-25 23:15:00,54.3,35.1,29.91,ESE,122,0.0,0.0,48,0.00,,BKN100,0.00,VWS V14.01,2013-01-26 07:15:00,
2013-01-25 23:20:00,54.5,35.2,29.91,ESE,122,0.0,0.0,48,0.00,,BKN100,0.00,VWS V14.01,2013-01-26 07:20:00,
2013-01-25 23:25:00,54.5,35.2,29.91,ESE,123,0.0,0.0,48,0.00,,BKN100,0.00,VWS V14.01,2013-01-26 07:25:00,
2013-01-25 23:30:00,54.1,34.9,29.91,ESE,122,0.0,0.0,48,0.00,,BKN100,0.00,VWS V14.01,2013-01-26 07:30:00,
2013-01-25 23:35:00,54.0,34.7,29.91,ESE,122,0.0,0.0,48,0.00,,BKN100,0.00,VWS V14.01,2013-01-26 07:35:00,
2013-01-25 23:40:00,53.8,34.6,29.91,ESE,122,0.0,0.0,48,0.00,,BKN100,0.00,VWS V14.01,2013-01-26 07:40:00,
2013-01-25 23:45:00,53.8,34.6,29.91,ESE,122,0.0,0.0,48,0.00,,BKN100,0.00,VWS V14.01,2013-01-26 07:45:00,
2013-01-25 23:50:00,53.6,34.9,29.91,ESE,123,0.0,0.0,49,0.00,,BKN100,0.00,VWS V14.01,2013-01-26 07:50:00,
2013-01-25 23:55:00,54.0,35.2,29.91,ESE,122,0.0,0.0,49,0.00,,BKN100,0.00,VWS V14.01,2013-01-26 07:55:00,